Preview of NWS' New Version of Forecast
This preview is not operational and should not be used for support decisions.

Regional Weather Roundup (RWR)

Issued by National Weather Service (NWS)

                            
000
ASUS43 KTOP 220259
RWRKS 

WEATHER ROUNDUP FOR KANSAS
NATIONAL WEATHER SERVICE GOODLAND KS
1000 PM CDT SUN APR 21 2019

NOTE:  "FAIR" INDICATES FEW OR NO CLOUDS BELOW 12,000 FEET WITH NO
SIGNIFICANT WEATHER AND/OR OBSTRUCTIONS TO VISIBILITY.

KSZ001>006-013>018-027>032-041>047-220400-
NORTHWEST KANSAS
  
CITY           SKY/WX    TMP DP  RH WIND       PRES   REMARKS
RUSSELL        LGT RAIN  60  56  86 SE13      29.76R                  
$$

KSZ061>065-074>080-084>089-220400-
SOUTHWEST KANSAS
  
CITY           SKY/WX    TMP DP  RH WIND       PRES   REMARKS
DODGE CITY     PTCLDY    62  43  49 N10       29.80R                  
$$

KSZ066>073-081>083-090>101-220400-
SOUTHEAST KANSAS
  
CITY           SKY/WX    TMP DP  RH WIND       PRES   REMARKS
CHANUTE        CLOUDY    73  48  41 S16       29.85R                  
COFFEYVILLE    PTCLDY    73  49  42 S15       29.85R                  
HUTCHINSON     CLEAR     72  56  57 S20G31    29.73R                  
MEDICINE LODGE   N/A     70  59  68 S14G24    29.73R                  
PARSONS        MOCLDY    73  49  42 S12G20    29.86R                  
WICHITA INTL   PTCLDY    72  56  57 S16G24    29.77R                  
$$

KSZ007>012-019>026-033>040-048>060-102>105-220400-
NORTHEAST KANSAS
  
CITY           SKY/WX    TMP DP  RH WIND       PRES   REMARKS
CONCORDIA      MOCLDY    73  46  38 W25G46    29.78R THUNDER          
EMPORIA        CLEAR     72  49  44 S24G35    29.77R                  
LAWRENCE       MOCLDY    72  49  44 SE10      29.80R                  
MANHATTAN      CLEAR     75  50  41 S14G21    29.73R                  
OLATHE IND     PTCLDY    72  51  47 S16       29.82R                  
OLATHE EXE     MOCLDY    72  49  44 S12       29.83R                  
SALINA         PTCLDY    74  55  51 S17G31    29.71R                  
TOPEKA FORBES  MOCLDY    73  47  39 S16G24    29.78R                  
$$